Regional Weather Roundup
Issued by NWS

Home | Current Version | Previous Version | Text Only | Print | Product List | Glossary On
Versions: 1 2 3 4 5 6 7 8 9 10 11 12 13 14 15 16 17 18 19 20 21 22 23 24 25 26 27 28 29 30 31 32 33 34 35 36 37 38 39 40 41 42 43 44 45 46 47 48 49 50
070
ASUS43 KMKX 211521
RWRWI

WISCONSIN REGIONAL WEATHER ROUNDUP
NATIONAL WEATHER SERVICE MILWAUKEE/SULLIVAN WI
1000 AM CDT SAT OCT 21 2017

NOTE: "FAIR" INDICATES FEW OR NO CLOUDS BELOW 12,000 FEET WITH NO
SIGNIFICANT WEATHER AND/OR OBSTRUCTIONS TO VISIBILITY.

WIZ001-002-006>008-014>016-023>028-211600-
NORTHWEST WISCONSIN

CITY           SKY/WX    TMP DP  RH WIND       PRES   REMARKS
SUPERIOR ARPT  LGT RAIN  59  56  89 S12G17    29.70R
ASHLAND        LGT RAIN  60  53  77 S10G29    29.74F
HAYWARD        PTSUNNY   58  54  86 S13G20    29.78R
SIREN          CLOUDY    59  57  92 S13       29.73S
CUMBERLAND     CLOUDY    55  54  94 SE14G22   29.75F
RICE LAKE      RAIN      58  55  91 SE14      29.79S
CHETEK         LGT RAIN  58  56  93 SE18G24   29.78F
LADYSMITH      CLOUDY    58  53  81 SE9G16    29.85R
EAU CLAIRE     CLOUDY    59  56  89 S13G21    29.78F
MENOMONIE      DRIZZLE   58  58 100 SE12      29.79S
NEW RICHMOND   LGT RAIN  59  57  92 S14       29.72S
OSCEOLA        LGT RAIN  60  60 100 S12       29.74S
$$

WIZ003>005-009-010-017-018-211600-
NORTH CENTRAL WISCONSIN

CITY           SKY/WX    TMP DP  RH WIND       PRES   REMARKS
MANITOWISH WTR LGT RAIN  59  53  80 S10G16    29.85S
ARBOR VITAE    CLOUDY    62  52  69 S9G18     29.86F
WOODRUFF       CLOUDY    62  52  69 S9G18     29.86F
RHINELANDER    CLOUDY    61  51  70 S8G20     29.90S
EAGLE RIVER    NOT AVBL
LAND O LAKES   MOSUNNY   62  48  60 S14G25    29.89R
PHILLIPS       LGT RAIN  57  54  89 S9        29.85R
TOMAHAWK       PTSUNNY   63  50  64 S3        29.88F
MEDFORD        CLOUDY    58  51  78 S12G17    29.88R
MERRILL        PTSUNNY   64  51  64 S9        29.89F
$$

WIZ029-030-035-036-043>047-211600-
CENTRAL WISCONSIN

CITY           SKY/WX    TMP DP  RH WIND       PRES   REMARKS
WAUSAU         MOSUNNY   64  51  62 S15       29.89S
MOSINEE        PTSUNNY   63  52  67 S12G18    29.91S
MARSHFIELD     PTSUNNY   62  51  67 S12       29.89R
STEVENS POINT  SUNNY     63  50  63 S12G21    29.92R
WAUPACA        MOSUNNY   66  52  60 S7        29.93S
WAUTOMA          N/A     64  52  64 S9        29.94R
WISC RAPIDS    MOSUNNY   67  53  61 SW15G26   29.92R
CAMP DOUGLAS   PTSUNNY   64  52  63 S16G23    29.90R
$$

WIZ011>013-019>022-031-037>040-048>050-211600-
NORTHEAST WISCONSIN

CITY           SKY/WX    TMP DP  RH WIND       PRES   REMARKS
ANTIGO         PTSUNNY   59  51  73 S14       29.93S
SHAWANO        MOSUNNY   65  50  59 S8        29.93S
OCONTO         MOSUNNY   62  51  67 S8        29.95F
STURGEON BAY   MOSUNNY   62  53  72 S18G26    29.97F
GREEN BAY      PTSUNNY   64  51  62 S12       29.96F
MANITOWOC      MOSUNNY   59  52  77 S16       30.00F
APPLETON       PTSUNNY   64  46  52 S16       29.94S
CLINTONVILLE   MOSUNNY   63  50  63 S10       29.93F
OSHKOSH        CLOUDY    65  52  62 S23       29.95S
$$

WIZ032>034-041-042-053>061-211600-
SOUTHWEST WISCONSIN

CITY           SKY/WX    TMP DP  RH WIND       PRES   REMARKS
LA CROSSE      CLOUDY    64  56  75 S14       29.85F
SPARTA         CLOUDY    64  54  70 S12       29.90R
VIROQUA        CLOUDY    60  56  86 S10       29.91S
BOSCOBEL       CLOUDY    68  52  56 S10       29.91S
PRAIRIE DU CHI CLOUDY    65  51  60 S6        29.89S
PLATTEVILLE    MOSUNNY   67  54  62 S20G26    29.94F
$$

WIZ056-057-062-063-064-067-068-211600-
SOUTH CENTRAL WISCONSIN

CITY           SKY/WX    TMP DP  RH WIND       PRES   REMARKS
REEDSBURG      CLOUDY    66  53  62 S13       29.93R
BARABOO/DELLS  MOSUNNY   65  50  58 S15       29.93S
LONE ROCK      PTSUNNY   68  54  60 S13G20    29.93S
MINERAL POINT  MOSUNNY   68  54  60 S13G18    29.94S
MADISON        CLOUDY    63  52  67 S20G28    29.96R
MIDDLETON      CLOUDY    64  52  64 S13       29.96S
WATERTOWN      CLOUDY    63  52  68 S15G23    29.98S
MONROE         CLOUDY    63  50  63 S18G30    29.97S
JANESVILLE     PTSUNNY   66  52  59 S15G22    30.00R
$$

WIZ051-052-058>065-066-070>072-211600-
SOUTHEAST WISCONSIN

CITY           SKY/WX    TMP DP  RH WIND       PRES   REMARKS
MILWAUKEE      CLOUDY    65  50  58 S17       30.03S
WAUKESHA       SUNNY     61  48  63 S8        30.03S
MILWAUKEE/TIMM MOSUNNY   63  46  55 S8        30.03R
RACINE         CLOUDY    64  51  62 S10       30.05R
BURLINGTON     CLOUDY    64  52  66 S8G17     30.02F
KENOSHA        CLOUDY    65  50  58 S12G20    30.04R
FOND DU LAC    MOSUNNY   66  48  52 S18G28    29.96S
SHEBOYGAN      MOSUNNY   61  53  75 S12       30.00S
WEST BEND      CLOUDY    63  46  55 S9        30.00F
JUNEAU         MOSUNNY   62  50  65 S9        30.00S
$$

LSZ147-162-211600-
LAKE SUPERIOR

STATION/POSITION TIME  TEMP    WIND        PRES    WAVE
                       AIR SEA DIR/SP/G            HT/PER
                 (UTC) (F)     (DEG/KT/KT) (MB)    (FT/S)
W MID LAKE BUOY  1450   57 52              1007.7S   2/ 4
DEVILS ISLAND    1500   64     180/ 13/ 19 1006.7R
PORT WING        1340          180/ 15/ 23 1006.4
SAXON HARBOR     1500   64     190/  6     1006.8
$$

LMZ867-665-643>646-211600-
LAKE MICHIGAN

STATION/POSITION TIME  TEMP    WIND        PRES    WAVE
                       AIR SEA DIR/SP/G            HT/PER
                 (UTC) (F)     (DEG/KT/KT) (MB)    (FT/S)
S GREEN BAY BUOY 1500   61 58  160/ 14/ 17 1014.3F
N MID LAKE BUOY  1450   61 58  180/ 19/ 23 1015.7R   5/ 6
NORTHPORT PIER   1440   61     170/  8/ 19 1015.2S
KEWAUNEE LAKESHO 1500   54     180/  6/  9 1014.8
SHEBOYGAN LAKESH 1500   56     180/ 19/ 20 1015.7F
PORT WASHINGTON  1430   57     190/  5/  7 1017.3S
MILWAUKEE LAKESH 1500   63     200/ 14/ 16   N/A
S MID LAKE BUOY  1450   62 61  170/ 19/ 25 1017.7F   4/ 5
KENOSHA   LAKESH 1500   61     180/  8/ 13 1017.3
$$

TC  - TEMPERATURE IN CELSIUS
VSB - VISIBILITY IN STATUTE MILES
WCI - WIND CHILL INDEX
HX  - HEAT INDEX





USA.gov is the U.S. government's official web portal to all federal, state and local government web resources and services.